Theta_e
308 304 302 303 303 304 305 307 307 306 302 301 302 300 300 302 301 301 302 302 303 303 303 304 304 304 304 305 306 313 313 311 309 307 305 303 301 301 302 302 302 302 301 300
305 304 303 302 303 304 305 307 306 303 301 301 299 300 299 299 300 301 302 302 302 302 302 302 302 302 302 302 303 310 312 310 308 306 305 303 301 301 302 302 302 302 301 299
304 303 303 303 301 305 301 304 303 303 299 298 296 300 300 299 299 300 300 301 301 301 301 301 301 302 302 302 304 309 310 308 306 305 304 303 302 301 302 302 302 302 301 298
301 301 302 301 300 301 306 299 300 299 296 298 295 299 297 297 297 298 299 300 301 300 300 300 301 302 303 303 304 306 308 306 305 304 304 303 302 302 302 302 302 302 301 298
301 300 300 300 299 299 302 298 299 298 291 291 293 290 294 296 296 296 297 299 300 300 300 300 300 302 303 303 304 305 306 304 304 304 303 303 303 302 302 302 302 301 300 297
299 299 298 299 298 298 297 297 294 293 288 289 286 290 295 295 297 296 296 298 299 299 299 299 300 300 302 303 303 304 304 304 304 303 303 303 302 302 302 302 301 301 300 297
297 299 298 297 300 298 295 291 291 292 290 295 278 292 299 297 295 295 296 298 299 299 299 299 299 299 300 302 303 303 303 303 303 303 303 302 302 301 301 300 299 298 298 297
291 294 294 295 297 299 297 290 291 289 292 293 280 292 297 295 295 296 296 297 298 298 298 298 297 297 298 299 300 302 302 302 302 301 300 298 297 297 296 296 296 295 295 295
293 295 296 295 295 294 295 290 291 284 274 286 290 291 293 294 291 294 296 296 297 298 298 298 297 296 296 297 297 297 297 297 296 295 295 294 294 293 292 291 291 291 291 291
295 293 289 296 295 293 292 292 292 287 289 287 289 281 295 291 289 288 293 296 297 298 298 297 297 296 295 294 294 293 293 293 292 291 291 291 291 291 291 290 290 290 290 290
290 289 291 294 288 289 290 290 289 288 290 289 289 293 288 287 282 285 292 295 297 298 298 298 297 295 294 294 293 292 291 291 290 290 290 290 290 290 290 290 289 289 289 289
297 293 290 290 293 293 293 291 293 292 288 287 290 293 286 280 286 291 295 297 298 298 298 297 297 295 294 294 294 293 290 290 290 290 290 290 290 289 289 288 288 288 288 288
296 289 287 294 292 291 292 294 291 287 291 290 290 295 284 285 291 295 295 296 296 296 297 297 296 295 294 294 294 292 290 289 289 289 290 289 289 288 288 287 287 287 287 287
297 294 290 294 292 286 291 292 293 290 286 294 291 296 294 294 285 292 294 294 294 295 295 296 295 295 295 294 292 290 289 289 289 289 289 288 287 287 286 286 286 285 285 285
294 289 291 289 286 285 289 292 290 290 293 292 296 286 293 294 293 293 294 295 295 295 295 295 295 294 294 293 290 289 288 289 288 288 287 287 286 286 286 285 285 285 285 285
293 287 284 287 289 291 291 292 292 290 292 287 292 293 292 293 292 292 292 294 294 295 295 295 294 293 292 290 290 289 288 288 288 287 287 286 286 285 285 286 286 286 286 285
288 283 281 286 283 283 288 285 288 286 281 286 288 289 280 288 290 291 292 293 293 294 295 295 295 293 291 290 290 289 288 288 287 287 286 286 285 285 286 286 285 285 285 284
286 280 278 284 279 286 291 287 287 287 288 284 285 288 289 290 291 291 293 293 293 293 294 294 294 294 291 291 289 288 288 288 287 286 286 285 285 285 285 285 285 284 283 283
291 287 284 284 279 287 292 290 291 291 291 290 288 289 291 291 290 291 292 292 292 293 294 292 292 293 290 289 288 288 288 287 287 285 285 284 284 285 285 284 283 283 283 283
289 293 287 275 282 287 290 291 291 290 288 290 290 289 289 289 289 289 290 290 290 291 291 291 291 290 289 289 288 288 287 286 285 284 283 283 283 283 283 283 283 283 282 282
289 292 290 287 287 286 288 290 290 287 290 289 288 288 288 287 288 288 289 290 290 290 290 290 290 289 289 288 287 286 285 285 284 283 283 283 283 283 283 282 282 283 283 283
287 287 283 285 284 290 290 290 289 288 288 287 286 286 286 286 286 286 286 288 289 289 289 289 289 289 288 287 286 285 284 283 283 283 283 283 283 283 283 283 283 283 283 282
287 288 284 288 290 290 289 289 287 286 285 284 284 284 284 284 284 285 285 285 286 288 289 289 288 288 288 287 286 284 284 283 283 283 284 284 283 283 283 282 282 282 282 282
286 287 285 286 287 288 287 285 284 283 283 283 284 284 283 283 283 284 284 285 285 285 288 288 288 288 288 288 286 284 283 283 283 284 284 284 283 283 283 283 282 282 282 281
287 286 281 283 286 288 287 284 283 283 283 283 283 283 283 283 283 283 283 284 285 285 285 287 288 287 288 287 285 284 283 283 284 284 283 283 283 283 283 282 282 281 282 281
286 285 286 286 284 285 284 282 282 282 282 282 282 283 283 283 283 283 283 284 285 285 285 284 285 287 287 286 284 283 283 283 283 283 283 283 283 283 282 281 282 282 282 282
Wind_Speed
5 6 3 2 2 3 1 1 3 2 3 4 4 6 10 10 9 12 14 13 12 11 11 13 15 17 19 19 17 20 20 20 17 15 15 17 17 15 14 13 12 11 10 11
6 4 4 3 4 3 5 1 3 4 4 3 5 12 11 11 10 15 16 13 11 11 11 12 13 14 14 15 16 18 20 19 16 13 13 14 15 15 14 13 13 11 12 12
5 2 6 3 6 4 3 3 4 3 7 2 8 7 5 4 9 12 12 11 10 10 10 11 10 9 8 8 11 15 17 18 16 13 12 13 14 13 12 11 11 12 13 13
5 6 4 5 5 4 1 3 2 3 5 3 5 5 7 5 7 4 10 11 11 10 9 9 8 7 6 5 8 12 16 18 16 13 12 12 13 13 13 13 13 13 14 14
3 5 6 7 1 1 1 4 3 3 3 4 6 3 8 5 6 7 16 17 15 12 10 8 7 7 5 5 6 9 13 15 14 13 13 13 13 14 14 15 15 15 15 16
2 2 3 1 1 2 2 1 5 3 3 3 3 4 6 3 5 5 7 23 20 15 12 9 8 7 7 6 6 9 12 14 15 15 14 14 14 15 15 15 15 16 17 18
5 3 3 5 2 2 5 6 4 5 4 5 2 2 11 6 7 6 12 15 20 16 14 12 11 9 8 9 9 10 11 13 14 14 14 14 14 13 13 14 15 17 19 19
4 6 4 7 4 1 4 5 5 5 2 5 2 6 6 4 8 13 14 15 17 17 15 13 12 10 10 9 10 11 12 13 12 12 11 11 11 11 12 13 15 16 18 19
3 4 1 3 1 2 2 2 3 6 1 3 3 8 10 2 6 8 9 10 17 17 16 14 13 12 12 11 11 11 10 10 9 9 8 9 10 11 13 15 16 17 19 21
2 3 2 3 1 5 4 2 3 3 2 5 5 6 6 5 6 7 7 12 15 17 18 17 17 16 15 13 12 10 9 9 9 8 8 9 10 12 14 17 19 21 22 23
4 4 4 1 2 5 2 2 3 3 3 4 3 6 7 7 4 6 14 15 17 19 21 21 21 20 19 17 14 12 10 9 9 8 9 10 13 16 18 20 22 23 23 25
0 4 2 7 1 2 3 5 4 4 6 3 1 9 1 5 7 10 15 14 16 20 25 26 25 25 24 21 17 15 13 11 10 10 11 14 17 19 21 22 23 24 24 24
3 2 3 8 3 3 3 4 4 3 1 7 2 7 3 5 7 11 16 30 22 29 29 31 30 29 26 23 20 17 14 12 12 13 15 17 19 20 21 22 23 23 23 22
2 2 7 7 7 3 2 3 4 5 2 7 8 25 14 18 7 26 36 37 32 26 28 26 30 33 29 24 22 19 17 15 15 16 17 18 19 21 22 22 23 23 24 25
3 4 2 4 6 2 5 12 6 10 12 5 28 6 20 19 15 31 35 31 33 33 30 27 27 31 28 25 23 21 19 17 17 17 18 19 20 22 23 23 23 23 24 25
2 2 2 5 4 1 6 15 12 12 14 11 20 23 21 22 15 24 31 26 30 32 29 27 25 26 25 24 23 22 22 18 19 20 20 20 21 23 23 23 25 27 29 30
2 3 3 6 4 6 7 7 5 3 4 6 5 9 5 13 23 29 30 29 30 32 28 26 20 19 22 21 20 23 23 22 22 22 22 23 23 24 26 28 30 30 31 32
5 4 2 4 4 1 6 3 6 8 8 8 10 12 17 23 29 26 28 29 38 43 26 20 15 16 21 19 18 17 18 20 21 23 25 24 23 26 27 29 30 31 31 32
4 4 1 1 2 7 7 2 3 3 6 3 4 10 21 29 28 22 28 35 42 39 22 18 20 17 19 19 19 20 22 23 24 23 23 22 23 26 28 31 31 31 32 33
2 1 3 3 2 5 5 1 0 3 4 7 8 16 22 26 12 15 36 43 41 27 18 20 20 20 20 20 22 27 27 24 23 21 22 23 24 26 28 30 32 33 34 36
4 2 7 3 4 9 8 6 5 4 6 21 23 22 22 8 20 39 43 42 36 30 26 27 24 23 24 27 26 27 25 24 21 21 23 24 26 28 31 33 34 35 36 38
6 6 4 2 0 8 1 1 3 8 20 22 24 24 26 30 35 38 40 41 39 37 38 36 31 30 29 27 26 27 26 22 22 24 28 29 30 32 33 34 36 36 38 40
3 6 4 9 7 1 7 9 13 17 18 21 26 32 33 34 37 39 41 42 43 41 42 39 39 35 32 29 28 28 28 22 24 27 29 31 32 34 34 35 37 38 39 40
4 5 3 3 3 11 14 16 20 25 27 30 31 33 35 38 39 40 41 40 42 44 41 39 35 35 37 37 30 29 26 23 25 28 30 33 35 37 38 40 41 40 40 40
3 3 2 5 7 11 18 24 29 31 34 38 39 38 39 40 41 40 40 38 40 42 42 39 35 34 38 37 31 27 24 23 26 29 33 36 37 38 39 40 41 41 42 40
2 2 1 1 10 5 14 26 33 35 36 37 38 40 41 42 43 44 43 40 40 43 42 40 41 39 34 34 31 27 24 24 27 31 35 37 40 41 42 43 42 41 41 40
Wind_Direction
18 66 59 21 351 268 274 298 296 320 29 343 268 280 274 269 257 238 231 229 230 237 248 260 268 271 271 265 254 242 237 240 247 259 255 251 250 252 254 259 268 277 285 292
23 59 343 294 18 66 38 356 308 288 23 353 354 282 257 243 241 237 235 229 237 253 266 278 285 285 278 267 248 233 228 233 244 254 257 255 254 253 257 263 268 266 278 285
103 342 321 70 32 32 45 15 352 291 330 72 330 288 304 266 240 242 237 237 243 262 278 286 290 292 287 269 245 229 222 227 233 242 254 256 254 255 257 261 259 265 276 285
75 331 23 53 66 14 5 348 319 342 33 272 18 282 298 329 296 268 241 238 243 257 271 281 281 286 288 271 240 226 220 220 225 236 251 254 252 254 257 260 262 267 273 281
276 5 19 54 328 347 249 32 39 66 81 36 353 64 275 359 310 266 237 233 236 242 251 260 268 267 271 261 241 225 217 218 227 241 251 253 255 258 261 266 269 269 275 282
94 38 47 7 347 20 357 45 36 55 92 19 230 112 286 255 222 276 262 229 228 229 237 247 256 256 247 243 229 221 218 222 231 242 251 258 262 265 269 272 274 277 280 284
353 15 2 27 340 357 53 48 339 353 7 222 348 41 243 257 243 253 285 261 229 225 228 235 242 243 239 231 228 223 222 226 233 243 252 260 263 265 269 273 278 281 284 286
92 333 14 356 50 336 37 126 149 239 268 276 353 241 248 223 311 295 283 276 233 230 235 242 246 243 235 227 224 226 230 235 241 250 256 264 273 278 281 283 284 288 290 293
68 305 38 39 356 72 278 34 144 98 95 35 272 294 297 319 303 288 285 263 231 234 239 246 248 244 236 227 221 219 221 226 229 236 248 261 273 281 286 290 292 293 295 297
170 351 279 290 115 39 137 152 30 9 332 307 292 277 240 327 312 314 286 252 245 245 248 251 248 240 232 225 221 220 221 227 235 246 258 273 281 288 292 294 296 297 297 297
133 98 287 28 191 186 25 338 40 118 140 184 283 257 213 221 233 301 309 285 271 262 259 258 254 246 239 235 232 233 240 244 250 262 276 287 295 298 299 298 298 298 298 298
19 128 268 230 352 245 220 218 166 123 269 227 175 272 79 239 263 291 317 335 318 281 270 260 252 244 240 239 242 248 254 254 262 277 285 291 295 298 299 299 299 300 300 300
178 320 358 338 353 345 243 211 135 120 77 209 127 263 255 266 295 310 305 318 314 311 297 269 251 246 243 242 244 247 250 256 267 277 282 290 296 300 302 302 302 301 301 301
164 189 179 205 214 124 258 249 184 137 157 279 213 275 296 295 320 315 315 315 316 312 306 293 256 249 243 242 242 241 245 255 270 281 287 292 296 301 304 303 303 304 306 308
132 212 258 258 240 177 239 258 201 198 236 217 277 255 281 292 305 301 308 318 318 314 309 295 273 251 243 240 238 241 244 257 278 288 292 297 298 298 297 299 301 302 304 304
23 272 73 298 346 274 265 264 252 240 255 259 269 278 282 286 309 313 317 322 318 317 315 308 292 252 241 242 245 247 249 264 283 290 293 295 294 287 288 296 299 301 302 301
115 120 59 265 321 327 302 233 208 222 223 179 230 248 329 320 322 322 318 319 315 312 304 304 294 255 246 248 255 255 255 263 276 283 291 295 292 287 290 295 298 299 300 300
140 97 109 265 7 84 246 190 202 200 248 224 283 285 303 302 314 319 321 323 325 315 293 295 299 261 245 256 250 253 259 270 278 282 288 293 292 291 292 295 297 299 299 300
175 113 339 210 225 300 283 159 173 190 279 12 241 303 330 332 322 319 326 320 317 305 280 287 285 270 251 250 259 273 278 279 282 290 295 297 292 288 288 292 297 298 299 300
100 4 135 66 135 261 245 102 19 156 274 20 332 340 340 341 324 311 320 315 315 294 292 294 288 267 258 270 281 282 279 278 282 293 294 293 292 291 291 294 295 298 299 299
117 177 226 198 260 281 256 275 267 76 315 341 344 333 324 304 293 304 317 320 316 288 287 295 284 270 278 288 285 276 275 275 287 289 290 291 292 293 294 295 296 298 299 298
170 163 207 100 73 282 305 66 110 332 337 339 331 325 318 314 314 315 316 312 310 303 288 285 271 274 284 290 279 274 272 280 285 288 290 294 297 298 298 298 298 296 296 296
280 199 185 187 217 45 10 353 0 358 346 345 345 347 343 337 336 334 329 322 312 309 304 301 278 274 281 286 279 273 275 281 286 289 294 298 300 301 301 299 298 297 297 296
245 201 222 48 323 352 35 25 12 359 351 345 340 335 333 331 330 329 330 331 325 314 307 303 300 283 280 282 278 268 274 280 286 290 295 301 303 304 303 302 301 299 297 297
230 154 197 262 346 348 13 1 349 343 341 339 334 329 325 325 323 325 319 324 321 322 317 307 301 296 284 279 278 268 273 279 285 289 292 296 301 302 300 297 295 295 295 296
258 273 174 329 359 340 323 339 343 337 333 330 323 319 320 321 321 323 322 322 314 314 312 313 308 298 294 285 279 271 274 277 282 288 294 298 301 301 298 298 297 295 296 296